Regional Weather Roundup
Issued by NWS

Home | Current Version | Previous Version | Text Only | Print | Product List | Glossary On
Versions: 1 2 3 4 5 6 7 8 9 10 11 12 13 14 15 16 17 18 19 20 21 22 23 24 25 26 27 28 29 30 31 32 33 34 35 36 37 38 39 40 41 42 43 44 45 46 47 48 49 50
000
ASUS43 KLMK 291510
RWRKY
KENTUCKY REGIONAL WEATHER ROUNDUP
NATIONAL WEATHER SERVICE LOUISVILLE KY
1100 AM EDT WED JUL 29 2015

NOTE "FAIR" INDICATES FEW OR NO CLOUDS BELOW 12,000 FEET
WITH NO SIGNIFICANT WEATHER AND/OR OBSTRUCTIONS TO VISIBILITY.

KYZ001>023-026-027-061>063-070>075-291600-
WESTERN AND SOUTH CENTRAL KENTUCKY

CITY           SKY/WX    TMP DP  RH WIND       PRES   REMARKS
PADUCAH        SUNNY     90  78  68 W6        30.01S HX 104
HENDERSON      PTSUNNY   82  73  74 SW3       29.98F
OWENSBORO      MOSUNNY   85  77  77 W8        30.00F HX  95
HOPKINSVILLE   TSTM      73  70  88 VRB5      30.07R VSB 1/4
BOWLING GREEN  MOSUNNY   86  73  65 CALM      30.03F HX  93
GLASGOW        MOSUNNY  N/A N/A N/A CALM      30.03F
$$

KYZ024-025-028>034-038-045-046-053-291600-
NORTH CENTRAL KENTUCKY

CITY           SKY/WX    TMP DP  RH WIND       PRES   REMARKS
LOUISVILLE/SDF PTSUNNY   86  75  69 CALM      29.99S HX  95
LOUISVILLE/LOU MOSUNNY   86  76  71 SW7       30.00S HX  96
FORT KNOX      SUNNY     84  74  72 CALM      30.00F HX  92
$$

KYZ035>037-039>044-047>052-055>060-089>105-291600-
NORTHEAST KENTUCKY

CITY           SKY/WX    TMP DP  RH WIND       PRES   REMARKS
LEXINGTON      MOSUNNY   81  76  84 S3        30.03F HAZE
COVINGTON      PTSUNNY   86  75  69 CALM      30.00S HX  95
FRANKFORT      SUNNY     83  76  79 SW6       30.01F HX  91
$$

KYZ054-064>069-076>088-106>120-291600-
SOUTHEAST KENTUCKY

CITY           SKY/WX    TMP DP  RH WIND       PRES   REMARKS
JACKSON        PTSUNNY   77  71  82 CALM      30.07S
LONDON         CLOUDY    76  70  82 CALM      30.07S HAZE
SOMERSET       CLOUDY    75  73  94 CALM      30.07F FOG
MIDDLESBORO    PTSUNNY   81  73  78 E3        30.07S
MONTICELLO     MOSUNNY   83  76  79 CALM      30.09S HX  91
$$



USA.gov is the U.S. government's official web portal to all federal, state and local government web resources and services.